This is the latest recevied weather packets stored in our database for station/object DL4NBA-1. If no packets are shown the sender has not sent any weather packets the latest 10 day(s).
| Time | Temp. | Humidity | Pressure | Rain* | Wind** | Luminosity | Snow |
|---|---|---|---|---|---|---|---|
| 1777539901 | 12.78° C | - | - | 0 mm | 4.02 m/s, 52° | - | - |
| 1777539602 | 13.33° C | - | - | 0 mm | 4.47 m/s, 49° | - | - |
| 1777539303 | 12.78° C | - | - | 0 mm | 4.92 m/s, 84° | - | - |
| 1777539005 | 12.22° C | - | - | 0 mm | 6.26 m/s, 72° | - | - |
| 1777538706 | 12.78° C | - | - | 0 mm | 4.02 m/s, 44° | - | - |
| 1777538404 | 11.67° C | - | - | 0 mm | 7.15 m/s, 65° | - | - |
| 1777538105 | 12.22° C | - | - | 0 mm | 5.36 m/s, 42° | - | - |
| 1777537807 | 13.33° C | - | - | 0 mm | 5.81 m/s, 100° | - | - |
| 1777537508 | 12.22° C | - | - | 0 mm | 4.47 m/s, 105° | - | - |
| 1777537209 | 12.22° C | - | - | 0 mm | 3.58 m/s, 94° | - | - |
| 1777536908 | 11.11° C | - | - | 0 mm | 4.92 m/s, 84° | - | - |
| 1777536609 | 11.67° C | - | - | 0 mm | 6.71 m/s, 75° | - | - |
| 1777536311 | 11.67° C | - | - | 0 mm | 5.81 m/s, 113° | - | - |
| 1777536012 | 11.11° C | - | - | 0 mm | 4.47 m/s, 52° | - | - |
| 1777535714 | 11.11° C | - | - | 0 mm | 5.36 m/s, 113° | - | - |
| 1777535411 | 10.56° C | - | - | 0 mm | 5.36 m/s, 105° | - | - |
| 1777535113 | 10.56° C | - | - | 0 mm | 4.47 m/s, 134° | - | - |
| 1777534814 | 11.11° C | - | - | 0 mm | 6.71 m/s, 82° | - | - |
| 1777534516 | 11.11° C | - | - | 0 mm | 5.36 m/s, 86° | - | - |
| 1777534217 | 10.56° C | - | - | 0 mm | 3.58 m/s, 110° | - | - |
| 1777533916 | 9.44° C | - | - | 0 mm | 4.47 m/s, 59° | - | - |
| 1777533617 | 9.44° C | - | - | 0 mm | 6.71 m/s, 105° | - | - |
| 1777533318 | 9.44° C | - | - | 0 mm | 4.92 m/s, 128° | - | - |
| 1777533020 | 9.44° C | - | - | 0 mm | 4.47 m/s, 97° | - | - |
| 1777532721 | 9.44° C | - | - | 0 mm | 4.02 m/s, 76° | - | - |
* Rain latest hour (hover to see other rain measurements)
** Current wind speed in m/s (hover to see current wind gust speed)